Volver al catálogo

SL-8 R/B

ActivoPO
NORAD 17067·ROCKET BODY·🇷🇺 Russia

Lanzado Nov 13, 1986 desde Plesetsk Cosmodrome

Loading…

Próximos Pases (próximas 24 horas)

TLE

ActualizadoSource: Space-Track

Época: Sep 14, 2026, 16:43 UTC

1 17067U 86086B   26257.69694828  .00000075  00000-0  58929-4 0  9992
2 17067  82.9467 158.4289 0032962 228.8147 158.5731 13.78106588  2683

Sigue SL-8 R/B en tiempo real con AllMySat

Download on the App Store